Time[GMT],salinity[psu](1m),sigma_t[kg/m^3](1m),conductivity[msiemens/cm](1m),temperature[C](1m)
2018-05-10 13:00,36.079,23.459,56.920,27.23
2018-05-10 14:00,36.101,23.475,56.950,27.23
2018-05-10 15:00,36.100,23.468,56.970,27.25
2018-05-10 16:00,36.097,23.453,57.010,27.29
2018-05-10 17:00,36.104,23.455,57.030,27.30
2018-05-10 18:00,36.102,23.444,57.060,27.33
2018-05-10 19:00,36.112,23.432,57.140,27.39
2018-05-10 20:00,36.107,23.434,57.110,27.37
2018-05-10 21:00,36.114,23.440,57.120,27.37
2018-05-10 22:00,36.115,23.447,57.100,27.35
2018-05-10 23:00,36.117,23.458,57.070,27.32
2018-05-11 00:00,36.117,23.458,57.070,27.32
2018-05-11 01:00,36.118,23.466,57.050,27.30
2018-05-11 02:00,36.118,23.466,57.050,27.30
2018-05-11 03:00,36.117,23.462,57.060,27.31
2018-05-11 04:00,36.126,23.475,57.050,27.29
2018-05-11 05:00,36.126,23.478,57.040,27.28
2018-05-11 06:00,36.119,23.473,57.030,27.28
2018-05-11 07:00,36.119,23.469,57.040,27.29
2018-05-11 08:00,36.120,23.477,57.020,27.27
2018-05-11 09:00,36.120,23.480,57.010,27.26
2018-05-11 10:00,36.120,23.480,57.010,27.26
2018-05-11 11:00,36.120,23.477,57.020,27.27
2018-05-11 12:00,36.119,23.473,57.030,27.28
2018-05-11 13:00,36.119,23.469,57.040,27.29
2018-05-11 14:00,36.124,23.467,57.070,27.31
2018-05-11 15:00,36.121,23.449,57.120,27.36
2018-05-11 16:00,36.125,23.432,57.190,27.42
2018-05-11 17:00,36.130,23.423,57.240,27.46
2018-05-11 18:00,36.129,23.419,57.250,27.47
2018-05-11 19:00,36.135,23.417,57.280,27.49
2018-05-11 20:00,36.139,23.404,57.340,27.54
2018-05-11 21:00,36.141,23.415,57.310,27.51
2018-05-11 22:00,36.142,23.422,57.290,27.49
2018-05-11 23:00,36.142,23.422,57.290,27.49
2018-05-12 00:00,36.143,23.426,57.280,27.48
2018-05-12 01:00,36.144,23.433,57.260,27.46
2018-05-12 02:00,36.152,23.446,57.250,27.44
2018-05-12 03:00,36.146,23.448,57.220,27.42
2018-05-12 04:00,36.147,23.452,57.210,27.41
2018-05-12 05:00,36.149,23.463,57.180,27.38
2018-05-12 06:00,36.148,23.459,57.190,27.39
2018-05-12 07:00,36.149,23.467,57.170,27.37
2018-05-12 08:00,36.151,23.474,57.150,27.35
2018-05-12 09:00,36.151,23.474,57.150,27.35
2018-05-12 10:00,36.152,23.485,57.120,27.32
2018-05-12 11:00,36.144,23.472,57.130,27.34
2018-05-12 12:00,36.145,23.476,57.120,27.33
2018-05-12 13:00,36.143,23.469,57.140,27.35
2018-05-12 14:00,36.143,23.465,57.150,27.36
2018-05-12 15:00,36.150,23.470,57.160,27.36
2018-05-12 16:00,36.149,23.463,57.180,27.38
2018-05-12 17:00,36.148,23.459,57.190,27.39
2018-05-12 18:00,36.146,23.444,57.230,27.43
2018-05-12 19:00,36.157,23.437,57.300,27.48
2018-05-12 20:00,36.164,23.442,57.310,27.48
2018-05-12 21:00,36.157,23.437,57.300,27.48
2018-05-12 22:00,36.165,23.449,57.290,27.46
2018-05-12 23:00,36.160,23.455,57.250,27.43
2018-05-13 00:00,36.168,23.468,57.240,27.41
2018-05-13 01:00,36.169,23.472,57.230,27.40
2018-05-13 02:00,36.169,23.475,57.220,27.39
2018-05-13 03:00,36.170,23.479,57.210,27.38
2018-05-13 04:00,36.170,23.479,57.210,27.38
2018-05-13 05:00,36.171,23.483,57.200,27.37
2018-05-13 06:00,36.171,23.487,57.190,27.36
2018-05-13 07:00,36.172,23.490,57.180,27.35
2018-05-13 08:00,36.180,23.499,57.180,27.34
2018-05-13 09:00,36.188,23.512,57.170,27.32
2018-05-13 10:00,36.057,23.436,56.910,27.25
2018-05-13 11:00,36.100,23.468,56.970,27.25
2018-05-13 12:00,36.169,23.511,57.100,27.28
2018-05-13 13:00,36.175,23.509,57.130,27.30
2018-05-13 14:00,36.182,23.514,57.140,27.30
2018-05-13 15:00,36.195,23.517,57.180,27.32
2018-05-13 16:00,36.199,23.504,57.240,27.37
2018-05-13 17:00,36.190,23.488,57.260,27.40
2018-05-13 18:00,36.181,23.471,57.280,27.43
2018-05-13 19:00,36.166,23.453,57.280,27.45
2018-05-13 20:00,36.161,23.459,57.240,27.42
2018-05-13 21:00,36.161,23.463,57.230,27.41
2018-05-13 22:00,36.154,23.457,57.220,27.41
2018-05-13 23:00,36.164,23.481,57.180,27.36
2018-05-14 00:00,36.164,23.477,57.190,27.37
2018-05-14 01:00,36.151,23.474,57.150,27.35
2018-05-14 02:00,36.144,23.472,57.130,27.34
2018-05-14 03:00,36.154,23.493,57.100,27.30
2018-05-14 04:00,36.147,23.491,57.080,27.29
2018-05-14 05:00,36.139,23.482,57.080,27.30
2018-05-14 06:00,36.133,23.480,57.060,27.29
2018-05-14 07:00,36.135,23.495,57.020,27.25
2018-05-14 08:00,36.144,23.508,57.010,27.23
2018-05-14 09:00,36.122,23.488,56.990,27.24
2018-05-14 10:00,36.122,23.488,56.990,27.24
2018-05-14 11:00,36.122,23.488,56.990,27.24
2018-05-14 12:00,36.114,23.479,56.990,27.25
2018-05-14 13:00,36.121,23.484,57.000,27.25
2018-05-14 14:00,36.112,23.468,57.020,27.28
2018-05-14 15:00,36.117,23.462,57.060,27.31
2018-05-14 16:00,36.109,23.449,57.070,27.33
2018-05-14 17:00,36.113,23.436,57.130,27.38
2018-05-14 18:00,36.113,23.436,57.130,27.38
2018-05-14 19:00,36.112,23.432,57.140,27.39
2018-05-14 20:00,36.112,23.429,57.150,27.40
2018-05-14 21:00,36.119,23.434,57.160,27.40
2018-05-14 22:00,36.121,23.445,57.130,27.37
2018-05-14 23:00,36.114,23.440,57.120,27.37
2018-05-15 00:00,36.115,23.447,57.100,27.35
2018-05-15 01:00,36.109,23.449,57.070,27.33
2018-05-15 02:00,36.102,23.444,57.060,27.33
2018-05-15 03:00,36.104,23.455,57.030,27.30
2018-05-15 04:00,36.103,23.451,57.040,27.31
2018-05-15 05:00,36.103,23.451,57.040,27.31
2018-05-15 06:00,36.096,23.446,57.030,27.31
2018-05-15 07:00,36.097,23.450,57.020,27.30
2018-05-15 08:00,36.068,23.428,56.980,27.30
2018-05-15 09:00,36.084,23.450,56.970,27.27
2018-05-15 10:00,36.091,23.455,56.980,27.27
2018-05-15 11:00,36.098,23.461,56.990,27.27
2018-05-15 12:00,36.097,23.453,57.010,27.29
2018-05-15 13:00,36.097,23.453,57.010,27.29
2018-05-15 14:00,36.096,23.446,57.030,27.31
2018-05-15 15:00,36.102,23.448,57.050,27.32
2018-05-15 16:00,36.102,23.444,57.060,27.33
2018-05-15 17:00,36.099,23.429,57.100,27.37
2018-05-15 18:00,36.105,23.427,57.130,27.39
2018-05-15 19:00,36.097,23.414,57.140,27.41
2018-05-15 20:00,36.102,23.409,57.180,27.44
2018-05-15 21:00,36.096,23.411,57.150,27.42
2018-05-15 22:00,36.098,23.422,57.120,27.39
2018-05-15 23:00,36.090,23.413,57.120,27.40
2018-05-16 00:00,36.093,23.431,57.070,27.35
2018-05-16 01:00,36.093,23.431,57.070,27.35
2018-05-16 02:00,36.094,23.435,57.060,27.34
2018-05-16 03:00,36.095,23.442,57.040,27.32
2018-05-16 04:00,36.095,23.442,57.040,27.32
2018-05-16 05:00,36.104,23.455,57.030,27.30
2018-05-16 06:00,36.096,23.446,57.030,27.31
2018-05-16 07:00,36.098,23.457,57.000,27.28
2018-05-16 08:00,36.091,23.451,56.990,27.28
2018-05-16 09:00,36.091,23.451,56.990,27.28
2018-05-16 10:00,36.092,23.463,56.960,27.25
2018-05-16 11:00,36.084,23.450,56.970,27.27
2018-05-16 12:00,36.077,23.444,56.960,27.27
2018-05-16 13:00,36.083,23.446,56.980,27.28
2018-05-16 14:00,36.090,23.448,57.000,27.29
2018-05-16 15:00,36.089,23.444,57.010,27.30
2018-05-16 16:00,36.093,23.431,57.070,27.35
2018-05-16 17:00,36.093,23.431,57.070,27.35
2018-05-16 18:00,36.098,23.422,57.120,27.39
2018-05-16 19:00,36.098,23.418,57.130,27.40
2018-05-16 20:00,36.096,23.411,57.150,27.42
2018-05-16 21:00,36.103,23.412,57.170,27.43
2018-05-16 22:00,36.102,23.409,57.180,27.44
2018-05-16 23:00,36.096,23.411,57.150,27.42
2018-05-17 00:00,36.089,23.405,57.140,27.42
2018-05-17 01:00,36.083,23.404,57.120,27.41
2018-05-17 02:00,36.084,23.411,57.100,27.39
2018-05-17 03:00,36.085,23.418,57.080,27.37
2018-05-17 04:00,36.086,23.422,57.070,27.36
2018-05-17 05:00,36.086,23.426,57.060,27.35
2018-05-17 06:00,36.087,23.429,57.050,27.34
2018-05-17 07:00,36.080,23.428,57.030,27.33
2018-05-17 08:00,36.074,23.430,57.000,27.31
2018-05-17 09:00,36.075,23.433,56.990,27.30
2018-05-17 10:00,36.070,23.439,56.950,27.27
2018-05-17 11:00,36.070,23.439,56.950,27.27
2018-05-17 12:00,36.054,23.421,56.950,27.29
2018-05-17 13:00,36.053,23.414,56.970,27.31
2018-05-17 14:00,36.060,23.415,56.990,27.32
2018-05-17 15:00,36.066,23.417,57.010,27.33
2018-05-17 16:00,36.051,23.403,57.000,27.34
2018-05-17 17:00,36.023,23.381,56.960,27.34
2018-05-17 18:00,36.042,23.386,57.020,27.37
2018-05-17 19:00,36.035,23.377,57.020,27.38
2018-05-17 20:00,36.027,23.368,57.020,27.39
2018-05-17 21:00,36.035,23.381,57.010,27.37
2018-05-17 22:00,36.028,23.375,57.000,27.37
2018-05-17 23:00,36.037,23.392,56.980,27.34
2018-05-18 00:00,36.038,23.399,56.960,27.32
2018-05-18 01:00,36.032,23.397,56.940,27.31
2018-05-18 02:00,36.032,23.401,56.930,27.30
2018-05-18 03:00,36.033,23.405,56.920,27.29
2018-05-18 04:00,36.026,23.399,56.910,27.29
2018-05-18 05:00,36.034,23.412,56.900,27.27
2018-05-18 06:00,36.035,23.419,56.880,27.25
2018-05-18 07:00,36.027,23.407,56.890,27.27
2018-05-18 08:00,36.028,23.414,56.870,27.25
2018-05-18 09:00,36.029,23.418,56.860,27.24
2018-05-18 10:00,36.029,23.421,56.850,27.23
2018-05-18 11:00,36.029,23.421,56.850,27.23
2018-05-18 12:00,36.029,23.421,56.850,27.23
2018-05-18 13:00,36.020,23.405,56.870,27.26
2018-05-18 14:00,36.027,23.410,56.880,27.26
2018-05-18 15:00,36.018,23.390,56.910,27.30
2018-05-18 16:00,36.018,23.390,56.910,27.30
2018-05-18 17:00,36.016,23.379,56.940,27.33
2018-05-18 18:00,36.015,23.372,56.960,27.35
2018-05-18 19:00,36.006,23.356,56.980,27.38
2018-05-18 20:00,36.006,23.356,56.980,27.38
2018-05-18 21:00,36.013,23.361,56.990,27.38
2018-05-18 22:00,36.007,23.363,56.960,27.36
2018-05-18 23:00,36.001,23.361,56.940,27.35
2018-05-19 00:00,36.009,23.374,56.930,27.33
2018-05-19 01:00,36.003,23.376,56.900,27.31
2018-05-19 02:00,36.005,23.387,56.870,27.28
2018-05-19 03:00,35.999,23.393,56.830,27.25
2018-05-19 04:00,35.999,23.389,56.840,27.26
2018-05-19 05:00,35.986,23.385,56.800,27.24
2018-05-19 06:00,35.994,23.398,56.790,27.22
2018-05-19 07:00,35.987,23.393,56.780,27.22
2018-05-19 08:00,35.987,23.393,56.780,27.22
2018-05-19 09:00,35.996,23.413,56.750,27.18
2018-05-19 10:00,35.988,23.400,56.760,27.20
2018-05-19 11:00,35.996,23.409,56.760,27.19
2018-05-19 12:00,35.995,23.402,56.780,27.21
2018-05-19 13:00,36.001,23.400,56.810,27.23
2018-05-19 14:00,36.007,23.398,56.840,27.25
2018-05-19 15:00,36.004,23.383,56.880,27.29
2018-05-19 16:00,36.011,23.385,56.900,27.30
2018-05-19 17:00,36.010,23.378,56.920,27.32
2018-05-19 18:00,36.014,23.368,56.970,27.36
2018-05-19 19:00,36.008,23.367,56.950,27.35
2018-05-19 20:00,36.007,23.359,56.970,27.37
2018-05-19 21:00,36.014,23.365,56.980,27.37
2018-05-19 22:00,36.014,23.365,56.980,27.37
2018-05-19 23:00,36.014,23.365,56.980,27.37
2018-05-20 00:00,36.016,23.376,56.950,27.34
2018-05-20 01:00,36.017,23.387,56.920,27.31
2018-05-20 02:00,36.019,23.394,56.900,27.29
2018-05-20 03:00,36.011,23.389,56.890,27.29
2018-05-20 04:00,36.020,23.401,56.880,27.27
2018-05-20 05:00,36.019,23.398,56.890,27.28
2018-05-20 06:00,36.020,23.401,56.880,27.27
2018-05-20 07:00,36.021,23.409,56.860,27.25
2018-05-20 08:00,36.014,23.407,56.840,27.24
2018-05-20 09:00,36.016,23.414,56.820,27.22
2018-05-20 10:00,36.016,23.414,56.820,27.22
2018-05-20 11:00,36.016,23.418,56.810,27.21
2018-05-20 12:00,36.008,23.409,56.810,27.22
2018-05-20 13:00,36.000,23.396,56.820,27.24
2018-05-20 14:00,35.999,23.393,56.830,27.25
2018-05-20 15:00,36.005,23.391,56.860,27.27
2018-05-20 16:00,35.996,23.371,56.890,27.31
2018-05-20 17:00,36.002,23.369,56.920,27.33
2018-05-20 18:00,36.001,23.361,56.940,27.35
2018-05-20 19:00,36.008,23.367,56.950,27.35
2018-05-20 20:00,36.007,23.363,56.960,27.36
2018-05-20 21:00,36.000,23.354,56.960,27.37
2018-05-20 22:00,36.007,23.359,56.970,27.37
2018-05-20 23:00,36.007,23.359,56.970,27.37
2018-05-21 00:00,36.000,23.358,56.950,27.36
2018-05-21 01:00,36.008,23.367,56.950,27.35
2018-05-21 02:00,36.003,23.376,56.900,27.31
2018-05-21 03:00,36.004,23.380,56.890,27.30
2018-05-21 04:00,36.004,23.383,56.880,27.29
2018-05-21 05:00,36.005,23.391,56.860,27.27
2018-05-21 06:00,36.005,23.387,56.870,27.28
2018-05-21 07:00,36.005,23.387,56.870,27.28
2018-05-21 08:00,36.013,23.396,56.870,27.27
2018-05-21 09:00,36.014,23.403,56.850,27.25
2018-05-21 10:00,36.007,23.398,56.840,27.25
2018-05-21 11:00,36.006,23.394,56.850,27.26
2018-05-21 12:00,36.006,23.394,56.850,27.26
2018-05-21 13:00,36.013,23.400,56.860,27.26
2018-05-21 14:00,36.011,23.385,56.900,27.30
2018-05-21 15:00,36.018,23.390,56.910,27.30
2018-05-21 16:00,36.016,23.376,56.950,27.34
2018-05-21 17:00,36.021,23.370,56.990,27.37
2018-05-21 18:00,36.020,23.366,57.000,27.38
2018-05-21 19:00,36.019,23.359,57.020,27.40
2018-05-21 20:00,36.026,23.364,57.030,27.40
2018-05-21 21:00,36.025,23.357,57.050,27.42
2018-05-21 22:00,36.026,23.361,57.040,27.41
2018-05-21 23:00,36.021,23.370,56.990,27.37
2018-05-22 00:00,36.022,23.374,56.980,27.36
2018-05-22 01:00,36.022,23.374,56.980,27.36
2018-05-22 02:00,36.027,23.368,57.020,27.39
2018-05-22 03:00,36.028,23.375,57.000,27.37
2018-05-22 04:00,36.029,23.383,56.980,27.35
2018-05-22 05:00,36.036,23.388,56.990,27.35
2018-05-22 06:00,36.029,23.383,56.980,27.35
2018-05-22 07:00,36.030,23.390,56.960,27.33
2018-05-22 08:00,36.030,23.390,56.960,27.33
2018-05-22 09:00,36.038,23.399,56.960,27.32
2018-05-22 10:00,36.030,23.390,56.960,27.33
2018-05-22 11:00,36.039,23.403,56.950,27.31
2018-05-22 12:00,36.038,23.399,56.960,27.32
2018-05-22 13:00,36.037,23.392,56.980,27.34
2018-05-22 14:00,36.036,23.384,57.000,27.36
2018-05-22 15:00,36.041,23.379,57.040,27.39
2018-05-22 16:00,36.046,23.373,57.080,27.42
2018-05-22 17:00,36.038,23.360,57.090,27.44
2018-05-22 18:00,36.036,23.349,57.120,27.47
2018-05-22 19:00,36.036,23.349,57.120,27.47
2018-05-22 20:00,36.036,23.346,57.130,27.48
2018-05-22 21:00,36.044,23.355,57.130,27.47
2018-05-22 22:00,36.045,23.362,57.110,27.45
2018-05-22 23:00,36.045,23.362,57.110,27.45
2018-05-23 00:00,36.046,23.373,57.080,27.42
2018-05-23 01:00,36.046,23.373,57.080,27.42
2018-05-23 02:00,36.055,23.386,57.070,27.40
2018-05-23 03:00,36.048,23.380,57.060,27.40
2018-05-23 04:00,36.046,23.373,57.080,27.42
2018-05-23 05:00,36.047,23.377,57.070,27.41
2018-05-23 06:00,36.048,23.380,57.060,27.40
2018-05-23 07:00,36.049,23.388,57.040,27.38
2018-05-23 08:00,35.992,23.345,56.960,27.38
2018-05-23 09:00,36.049,23.391,57.030,27.37
2018-05-23 10:00,36.049,23.391,57.030,27.37
2018-05-23 11:00,36.050,23.395,57.020,27.36
2018-05-23 12:00,36.049,23.391,57.030,27.37
2018-05-23 13:00,36.049,23.388,57.040,27.38
2018-05-23 14:00,36.048,23.384,57.050,27.39
2018-05-23 15:00,36.052,23.371,57.110,27.44
2018-05-23 16:00,36.058,23.365,57.150,27.47
2018-05-23 17:00,36.049,23.353,57.160,27.49
2018-05-23 18:00,36.054,23.339,57.220,27.54
2018-05-23 19:00,36.059,23.337,57.250,27.56
2018-05-23 20:00,36.052,23.328,57.250,27.57
2018-05-23 21:00,36.052,23.332,57.240,27.56
2018-05-23 22:00,36.061,23.345,57.230,27.54
2018-05-23 23:00,36.054,23.339,57.220,27.54
2018-05-24 00:00,36.062,23.352,57.210,27.52
2018-05-24 01:00,36.055,23.351,57.190,27.51
2018-05-24 02:00,36.056,23.354,57.180,27.50
2018-05-24 03:00,36.058,23.365,57.150,27.47
2018-05-24 04:00,36.050,23.356,57.150,27.48
2018-05-24 05:00,36.058,23.365,57.150,27.47
2018-05-24 06:00,36.051,23.364,57.130,27.46
2018-05-24 07:00,36.059,23.373,57.130,27.45
2018-05-24 08:00,36.060,23.376,57.120,27.44
2018-05-24 09:00,36.059,23.373,57.130,27.45
2018-05-24 10:00,36.059,23.373,57.130,27.45
2018-05-24 11:00,36.060,23.380,57.110,27.43
2018-05-24 12:00,36.067,23.382,57.130,27.44
2018-05-24 13:00,36.066,23.378,57.140,27.45
2018-05-24 14:00,36.064,23.363,57.180,27.49
2018-05-24 15:00,36.063,23.360,57.190,27.50
2018-05-24 16:00,36.062,23.352,57.210,27.52
2018-05-24 17:00,36.066,23.339,57.270,27.57
2018-05-24 18:00,36.064,23.328,57.300,27.60
2018-05-24 19:00,36.062,23.313,57.340,27.64
2018-05-24 20:00,36.069,23.318,57.350,27.64
2018-05-24 21:00,36.069,23.318,57.350,27.64
2018-05-24 22:00,36.069,23.318,57.350,27.64
2018-05-24 23:00,36.069,23.318,57.350,27.64
2018-05-25 00:00,36.076,23.327,57.350,27.63
2018-05-25 01:00,36.076,23.327,57.350,27.63
2018-05-25 02:00,36.077,23.331,57.340,27.62
2018-05-25 03:00,36.076,23.327,57.350,27.63
2018-05-25 04:00,36.085,23.344,57.330,27.60
2018-05-25 05:00,36.078,23.339,57.320,27.60
2018-05-25 06:00,36.086,23.348,57.320,27.59
2018-05-25 07:00,36.087,23.351,57.310,27.58
2018-05-25 08:00,36.080,23.346,57.300,27.58
2018-05-25 09:00,36.087,23.355,57.300,27.57
2018-05-25 10:00,36.088,23.363,57.280,27.55
2018-05-25 11:00,36.088,23.363,57.280,27.55
2018-05-25 12:00,36.088,23.359,57.290,27.56
2018-05-25 13:00,36.087,23.355,57.300,27.57
2018-05-25 14:00,36.094,23.357,57.320,27.58
2018-05-25 15:00,36.091,23.342,57.360,27.62
2018-05-25 16:00,36.090,23.334,57.380,27.64
2018-05-25 17:00,36.095,23.329,57.420,27.67
2018-05-25 18:00,36.086,23.312,57.440,27.70
2018-05-25 19:00,36.086,23.312,57.440,27.70
2018-05-25 20:00,36.093,23.314,57.460,27.71
2018-05-25 21:00,36.093,23.314,57.460,27.71
2018-05-25 22:00,36.087,23.316,57.430,27.69
2018-05-25 23:00,36.088,23.323,57.410,27.67
2018-05-26 00:00,36.095,23.329,57.420,27.67
2018-05-26 01:00,36.096,23.332,57.410,27.66
2018-05-26 02:00,36.088,23.323,57.410,27.67
2018-05-26 03:00,36.095,23.329,57.420,27.67
2018-05-26 04:00,36.088,23.323,57.410,27.67
2018-05-26 05:00,36.090,23.334,57.380,27.64
2018-05-26 06:00,36.091,23.338,57.370,27.63
2018-05-26 07:00,36.087,23.351,57.310,27.58
2018-05-26 08:00,36.086,23.348,57.320,27.59
2018-05-26 09:00,36.078,23.339,57.320,27.60
2018-05-26 10:00,36.080,23.350,57.290,27.57
2018-05-26 11:00,36.080,23.350,57.290,27.57
2018-05-26 12:00,36.087,23.351,57.310,27.58
2018-05-26 13:00,36.085,23.344,57.330,27.60
2018-05-26 14:00,36.084,23.337,57.350,27.62
2018-05-26 15:00,36.082,23.325,57.380,27.65
2018-05-26 16:00,36.088,23.320,57.420,27.68
2018-05-26 17:00,36.084,23.297,57.480,27.74
2018-05-26 18:00,36.089,23.291,57.520,27.77
2018-05-26 19:00,36.083,23.294,57.490,27.75
2018-05-26 20:00,36.076,23.288,57.480,27.75
2018-05-26 21:00,36.070,23.290,57.450,27.73
2018-05-26 22:00,36.073,23.305,57.410,27.69
2018-05-26 23:00,36.066,23.300,57.400,27.69
2018-05-27 00:00,36.082,23.322,57.390,27.66
2018-05-27 01:00,36.081,23.318,57.400,27.67
2018-05-27 02:00,36.075,23.316,57.380,27.66
2018-05-27 03:00,36.075,23.320,57.370,27.65
2018-05-27 04:00,36.082,23.322,57.390,27.66
2018-05-27 05:00,36.075,23.316,57.380,27.66
2018-05-27 06:00,36.084,23.333,57.360,27.63
2018-05-27 07:00,36.089,23.331,57.390,27.65
2018-05-27 08:00,36.077,23.331,57.340,27.62
2018-05-27 09:00,36.085,23.340,57.340,27.61
2018-05-27 10:00,36.077,23.331,57.340,27.62
2018-05-27 11:00,36.085,23.340,57.340,27.61
2018-05-27 12:00,36.077,23.331,57.340,27.62
2018-05-27 13:00,36.084,23.333,57.360,27.63
2018-05-27 14:00,36.082,23.322,57.390,27.66
2018-05-27 15:00,36.077,23.296,57.460,27.73
2018-05-27 16:00,36.083,23.290,57.500,27.76
2018-05-27 17:00,36.087,23.277,57.560,27.81
2018-05-27 18:00,36.084,23.258,57.610,27.86
2018-05-27 19:00,36.081,23.239,57.660,27.91
2018-05-27 20:00,36.082,23.247,57.640,27.89
2018-05-27 21:00,36.082,23.250,57.630,27.88
2018-05-27 22:00,36.078,23.260,57.580,27.84
2018-05-27 23:00,36.080,23.275,57.540,27.80
2018-05-28 00:00,36.081,23.282,57.520,27.78
2018-05-28 01:00,36.075,23.281,57.500,27.77
2018-05-28 02:00,36.076,23.288,57.480,27.75
2018-05-28 03:00,36.077,23.292,57.470,27.74
2018-05-28 04:00,36.069,23.283,57.470,27.75
2018-05-28 05:00,36.077,23.296,57.460,27.73
2018-05-28 06:00,36.077,23.296,57.460,27.73
2018-05-28 07:00,36.070,23.287,57.460,27.74
2018-05-28 08:00,36.076,23.288,57.480,27.75
2018-05-28 09:00,36.083,23.294,57.490,27.75
2018-05-28 10:00,36.076,23.285,57.490,27.76
2018-05-28 11:00,36.076,23.285,57.490,27.76
2018-05-28 12:00,36.083,23.290,57.500,27.76
2018-05-28 13:00,36.082,23.286,57.510,27.77
2018-05-28 14:00,36.081,23.279,57.530,27.79
2018-05-28 15:00,36.085,23.265,57.590,27.84
2018-05-28 16:00,36.083,23.254,57.620,27.87
2018-05-28 17:00,36.081,23.239,57.660,27.91
2018-05-28 18:00,36.079,23.232,57.680,27.93
2018-05-28 19:00,36.078,23.224,57.700,27.95
2018-05-28 20:00,36.078,23.224,57.700,27.95
2018-05-28 21:00,36.079,23.232,57.680,27.93
2018-05-28 22:00,36.073,23.230,57.660,27.92
2018-05-28 23:00,36.081,23.243,57.650,27.90
2018-05-29 00:00,36.077,23.253,57.600,27.86
2018-05-29 01:00,36.078,23.260,57.580,27.84
2018-05-29 02:00,36.086,23.273,57.570,27.82
2018-05-29 03:00,36.080,23.275,57.540,27.80
2018-05-29 04:00,36.080,23.271,57.550,27.81
2018-05-29 05:00,36.081,23.279,57.530,27.79
2018-05-29 06:00,36.081,23.282,57.520,27.78
2018-05-29 07:00,36.082,23.286,57.510,27.77
2018-05-29 08:00,36.075,23.281,57.500,27.77
2018-05-29 09:00,36.075,23.281,57.500,27.77
2018-05-29 10:00,36.076,23.288,57.480,27.75
2018-05-29 11:00,36.067,23.272,57.500,27.78
2018-05-29 12:00,36.052,23.254,57.500,27.80
2018-05-29 13:00,36.059,23.259,57.510,27.80
2018-05-29 14:00,36.065,23.261,57.530,27.81
2018-05-29 15:00,36.064,23.253,57.550,27.83
2018-05-29 16:00,36.069,23.244,57.600,27.87
2018-05-29 17:00,36.067,23.232,57.630,27.90
2018-05-29 18:00,36.066,23.225,57.650,27.92
2018-05-29 19:00,36.065,23.217,57.670,27.94
2018-05-29 20:00,36.058,23.216,57.650,27.93
2018-05-29 21:00,36.064,23.214,57.680,27.95
2018-05-29 22:00,36.054,23.193,57.710,27.99
2018-05-29 23:00,36.056,23.205,57.680,27.96
2018-05-30 00:00,36.052,23.218,57.620,27.91
2018-05-30 01:00,36.046,23.220,57.590,27.89
2018-05-30 02:00,36.056,23.240,57.560,27.85
2018-05-30 03:00,36.056,23.240,57.560,27.85
2018-05-30 04:00,36.050,23.242,57.530,27.83
2018-05-30 05:00,36.044,23.241,57.510,27.82
2018-05-30 06:00,36.044,23.241,57.510,27.82
2018-05-30 07:00,36.044,23.241,57.510,27.82
2018-05-30 08:00,36.038,23.243,57.480,27.80
2018-05-30 09:00,36.038,23.243,57.480,27.80
2018-05-30 10:00,36.038,23.247,57.470,27.79
2018-05-30 11:00,36.031,23.238,57.470,27.80
2018-05-30 12:00,36.022,23.221,57.490,27.83
2018-05-30 13:00,36.035,23.224,57.530,27.85
2018-05-30 14:00,36.034,23.221,57.540,27.86
2018-05-30 15:00,36.039,23.215,57.580,27.89
2018-05-30 16:00,36.035,23.189,57.650,27.96
2018-05-30 17:00,36.053,23.186,57.730,28.01
2018-05-30 18:00,36.058,23.180,57.770,28.04
2018-05-30 19:00,36.057,23.172,57.790,28.06
2018-05-30 20:00,36.050,23.167,57.780,28.06
2018-05-30 21:00,36.059,23.184,57.760,28.03
2018-05-30 22:00,36.059,23.184,57.760,28.03
2018-05-30 23:00,36.068,23.200,57.740,28.00
2018-05-31 00:00,36.071,23.219,57.690,27.95
2018-05-31 01:00,36.065,23.217,57.670,27.94
2018-05-31 02:00,36.059,23.220,57.640,27.92
2018-05-31 03:00,36.052,23.214,57.630,27.92
2018-05-31 04:00,36.052,23.214,57.630,27.92
2018-05-31 05:00,36.044,23.205,57.630,27.93
2018-05-31 06:00,36.045,23.209,57.620,27.92
2018-05-31 07:00,36.054,23.225,57.600,27.89
2018-05-31 08:00,36.046,23.220,57.590,27.89
2018-05-31 09:00,36.054,23.229,57.590,27.88
2018-05-31 10:00,36.048,23.231,57.560,27.86
2018-05-31 11:00,36.055,23.237,57.570,27.86
2018-05-31 12:00,36.055,23.233,57.580,27.87
2018-05-31 13:00,36.054,23.229,57.590,27.88
2018-05-31 14:00,36.046,23.216,57.600,27.90
2018-05-31 15:00,36.052,23.214,57.630,27.92
2018-05-31 16:00,36.049,23.199,57.670,27.96
2018-05-31 17:00,36.046,23.177,57.730,28.02
2018-05-31 18:00,36.046,23.177,57.730,28.02
2018-05-31 19:00,36.038,23.168,57.730,28.03
2018-05-31 20:00,36.039,23.172,57.720,28.02
2018-05-31 21:00,36.053,23.186,57.730,28.01
2018-05-31 22:00,36.074,23.202,57.760,28.01
2018-05-31 23:00,36.061,23.195,57.730,28.00
2018-06-01 00:00,36.071,23.219,57.690,27.95
2018-06-01 01:00,36.065,23.217,57.670,27.94
2018-06-01 02:00,36.059,23.223,57.630,27.91
2018-06-01 03:00,36.052,23.218,57.620,27.91
2018-06-01 04:00,36.054,23.225,57.600,27.89
2018-06-01 05:00,35.944,23.163,57.380,27.83
2018-06-01 06:00,36.030,23.230,57.490,27.82
2018-06-01 07:00,36.050,23.242,57.530,27.83
2018-06-01 08:00,36.051,23.250,57.510,27.81
2018-06-01 09:00,36.051,23.246,57.520,27.82
2018-06-01 10:00,36.050,23.242,57.530,27.83
2018-06-01 11:00,36.044,23.245,57.500,27.81
2018-06-01 12:00,36.043,23.237,57.520,27.83
2018-06-01 13:00,36.044,23.245,57.500,27.81
2018-06-01 14:00,36.042,23.233,57.530,27.84
2018-06-01 15:00,36.048,23.231,57.560,27.86